Date,TemperatureHighF,TemperatureAvgF,TemperatureLowF,DewpointHighF,DewpointAvgF,DewpointLowF,HumidityHigh,HumidityAvg,HumidityLow,PressureMaxIn,PressureMinIn,WindSpeedMaxMPH,WindSpeedAvgMPH,GustSpeedMaxMPH,PrecipitationSumIn
2013-1-1,43,31,21,25,15,-100,86,62,31,30.50,30.38,4,-44,0,0.00
2013-1-2,49,35,25,22,19,16,76,54,27,30.43,30.32,4,2,0,0.00
2013-1-3,46,36,27,29,20,14,72,53,40,30.43,30.34,7,-85,0,0.00
2013-1-4,44,37,29,25,-3,-100,79,42,44,30.59,30.49,5,-266,0,0.00
2013-1-5,52,34,21,26,19,10,86,60,19,30.64,30.54,5,-80,0,0.00
2013-1-6,51,37,23,25,15,-100,72,49,24,30.56,30.27,4,-13,0,0.00
2013-1-7,54,40,24,27,23,18,80,53,25,30.29,30.10,6,2,0,0.00
2013-1-8,60,44,33,30,21,10,67,44,15,30.40,30.17,6,-20,0,0.00
2013-1-9,60,44,30,24,15,9,61,34,14,30.57,30.40,7,2,0,0.00
2013-1-10,60,47,30,28,18,12,64,34,18,30.42,30.14,21,8,0,0.00
2013-1-11,51,37,27,30,11,-100,75,38,21,30.31,30.13,23,-95,0,0.00
2013-1-12,36,28,15,10,4,-2,67,38,20,30.34,30.20,13,-23,13,0.00
2013-1-13,40,26,14,6,2,-5,62,38,21,30.35,30.20,6,-12,0,0.00
2013-1-14,37,27,15,4,-1,-100,57,33,19,30.38,30.24,9,-88,0,0.00
2013-1-15,36,22,9,5,0,-100,67,41,17,30.57,30.36,7,-23,0,0.00
2013-1-16,50,34,20,4,-3,-100,39,23,14,30.65,30.52,5,-53,0,0.00
2013-1-17,58,44,29,13,0,-100,40,22,15,30.65,30.52,5,-47,0,0.00
2013-1-18,61,42,26,18,14,10,60,35,14,30.61,30.48,4,-92,0,0.00
2013-1-19,66,47,32,20,12,-100,50,28,11,30.62,30.49,4,-63,0,0.00
2013-1-20,66,53,34,27,12,-100,54,28,19,30.55,30.40,5,-57,0,0.00
2013-1-21,68,52,37,26,24,20,62,35,19,30.52,30.41,5,2,0,0.00
2013-1-22,69,52,37,27,22,17,57,34,15,30.58,30.47,5,2,0,0.00
2013-1-23,70,52,36,27,23,19,56,34,17,30.65,30.53,7,2,0,0.00
2013-1-24,64,54,46,42,33,25,68,47,27,30.63,30.53,5,1,0,0.00
2013-1-25,66,56,44,44,39,35,79,54,32,30.60,30.41,10,2,0,0.00
2013-1-26,63,56,49,51,46,42,85,71,47,30.42,30.27,20,8,0,0.00
2013-1-27,58,52,46,44,41,39,85,68,52,30.38,30.29,11,4,0,0.00
2013-1-28,53,46,34,41,35,-100,82,68,46,30.29,30.19,18,-3,0,0.00
2013-1-29,41,35,30,28,16,-100,79,50,33,30.45,30.24,19,-252,0,0.00
2013-1-30,49,38,27,22,13,-100,69,43,24,30.60,30.44,5,-277,0,0.00
2013-1-31,54,48,43,25,9,-100,49,34,27,30.51,30.47,5,-356,0,0.00
2013-2-1,63,54,40,30,16,-100,47,26,20,30.56,30.47,4,-98,0,0.00
2013-2-2,66,56,35,27,11,-100,51,22,10,30.63,30.51,5,-45,0,0.00
2013-2-3,60,52,45,36,14,-100,49,28,19,30.54,30.34,12,-101,0,0.00
2013-2-4,63,54,42,39,31,-100,73,44,30,30.42,30.29,10,-190,0,0.00
2013-2-5,65,53,37,39,14,-100,80,40,24,30.42,30.27,7,-355,0,0.00
2013-2-6,63,54,41,33,14,-100,65,32,24,30.39,30.25,11,-177,0,0.00
2013-2-7,60,48,35,36,26,-100,83,52,24,30.47,30.34,6,-28,0,0.00
2013-2-8,64,57,49,19,10,0,29,16,9,30.27,30.13,19,-47,0,0.00
2013-2-9,49,40,31,28,23,17,80,52,29,30.24,30.06,21,3,0,0.00
2013-2-10,51,43,33,22,0,-100,56,28,17,30.31,30.19,15,-157,0,0.00
2013-2-11,45,35,24,31,-2,-100,70,39,26,30.30,30.22,18,-465,0,0.00
2013-2-12,45,34,23,25,7,-100,80,49,21,30.49,30.43,5,-301,0,0.00
2013-2-13,55,39,22,21,11,-100,71,38,17,30.49,30.36,4,-70,0,0.00
2013-2-14,61,46,27,20,-2,-100,68,25,14,30.45,30.34,9,-131,0,0.00
2013-2-15,61,58,54,18,12,1,23,17,10,30.59,30.51,10,-769,0,0.00
2013-2-16,64,50,35,14,7,-100,39,21,8,30.65,30.41,6,-116,0,0.00
2013-2-17,67,50,28,11,7,2,45,21,8,30.41,30.18,23,7,0,0.00
2013-2-18,62,50,35,14,9,5,36,20,10,30.41,30.27,8,-12,0,0.00
2013-2-19,59,51,39,35,22,7,64,33,17,30.31,30.04,20,-48,0,0.00
2013-2-20,48,34,28,30,24,19,87,70,31,30.17,29.91,25,12,0,0.00
2013-2-21,42,35,23,30,25,19,85,68,50,30.30,30.17,8,3,0,0.00
2013-2-22,49,38,27,30,26,18,86,63,32,30.43,30.24,11,4,0,0.00
2013-2-23,62,42,24,27,21,15,84,50,18,30.43,30.15,8,3,0,0.00
2013-2-24,47,47,47,20,20,7,34,34,34,30.32,30.16,5,4,0,0.00
2013-2-25,54,38,22,14,10,7,60,34,16,30.45,30.32,10,3,0,0.00
2013-2-26,59,42,23,18,11,2,67,34,10,30.39,30.22,12,4,0,0.00
2013-2-27,56,41,26,14,6,0,55,26,12,30.51,30.38,7,3,0,0.00
2013-2-28,57,44,30,8,3,-2,36,19,9,30.63,30.47,8,3,0,0.00
2013-3-1,66,48,30,17,10,4,40,22,11,30.66,30.55,11,3,0,0.00
2013-3-2,73,54,35,24,16,10,54,25,9,30.71,30.51,6,-12,0,0.00
2013-3-3,63,50,41,19,15,9,39,26,12,30.53,30.33,7,-10,0,0.00
2013-3-4,66,62,54,26,13,-100,26,16,8,30.37,30.23,24,-5,0,0.00
2013-3-5,69,63,38,29,4,-100,63,17,11,30.50,30.37,17,-366,0,0.00
2013-3-6,77,69,55,26,21,-100,28,17,11,30.40,30.28,15,-62,0,0.00
2013-3-7,71,58,45,26,20,12,46,25,11,30.36,30.25,12,6,0,0.00
2013-3-8,57,51,39,43,28,-100,79,49,26,30.31,30.13,26,-86,0,0.00
2013-3-9,44,40,36,33,10,-100,80,58,54,30.38,30.22,25,-386,0,0.00
2013-3-10,57,45,36,33,29,19,82,58,26,30.46,30.35,13,-214,0,0.00
2013-3-11,59,49,51,27,11,-100,38,28,29,30.52,30.46,4,-351,0,0.00
2013-3-12,72,63,50,24,16,-100,31,18,9,30.50,30.40,5,-44,0,0.00
2013-3-13,77,60,41,26,18,9,53,22,8,30.59,30.45,6,2,0,0.00
2013-3-14,81,63,43,24,14,1,43,18,5,30.59,30.45,5,2,0,0.00
2013-3-15,84,67,46,23,13,2,34,14,5,30.50,30.32,12,4,0,0.00
2013-3-16,79,68,52,20,12,1,27,13,6,30.37,30.16,17,7,0,0.00
2013-3-17,73,68,60,20,16,12,18,14,11,30.33,30.20,17,10,0,0.00
2013-3-18,74,62,49,30,19,11,44,21,9,30.40,30.29,10,4,0,0.00
2013-3-19,70,61,50,31,22,19,38,23,14,30.45,30.32,13,5,0,0.00
2013-3-20,76,61,45,28,22,15,47,25,10,30.48,30.28,12,4,0,0.00
2013-3-21,72,63,54,28,23,11,30,22,10,30.29,30.11,15,5,0,0.00
2013-3-22,72,64,54,27,21,12,31,20,10,30.20,30.06,20,10,0,0.00
2013-3-23,66,57,45,27,15,5,41,21,9,30.35,30.19,18,8,0,0.00
2013-3-24,68,56,38,9,4,-1,25,13,7,30.37,30.22,12,4,0,0.00
2013-3-25,70,55,38,15,10,4,31,17,9,30.39,30.29,7,3,0,0.00
2013-3-26,78,60,41,14,10,5,32,15,7,30.42,30.25,11,4,0,0.00
2013-3-27,76,65,47,23,15,7,28,16,7,30.40,30.30,13,6,0,0.00
2013-3-28,76,64,48,29,20,13,38,20,10,30.47,30.35,11,5,0,0.00
2013-3-29,79,66,47,22,18,15,31,16,11,30.52,30.38,10,3,0,0.00
2013-3-30,75,64,49,23,17,-100,33,18,9,30.48,30.35,11,3,0,0.00
2013-3-31,77,64,45,26,21,15,43,21,11,30.45,30.31,11,4,0,0.00
2013-4-1,77,66,52,29,22,15,40,20,10,30.41,30.26,14,7,0,0.00
2013-4-2,71,58,44,24,14,-4,38,20,5,30.34,30.23,14,5,0,0.00
2013-4-3,74,60,42,22,18,6,38,20,7,30.43,30.32,8,3,0,0.00
2013-4-4,79,64,43,25,16,4,45,19,6,30.51,30.35,10,4,0,0.00
2013-4-5,81,69,52,26,16,9,26,14,8,30.40,30.26,12,6,0,0.00
2013-4-6,78,68,53,28,24,18,35,20,11,30.39,30.24,14,6,0,0.00
2013-4-7,79,68,49,33,24,16,49,22,11,30.31,30.15,14,7,0,0.00
2013-4-8,75,64,55,35,28,22,43,26,14,30.17,29.80,31,17,0,0.00
2013-4-9,57,49,42,33,7,-100,68,31,24,30.24,29.87,25,-172,0,0.00
2013-4-10,60,52,43,25,20,-100,49,30,19,30.35,30.20,14,8,0,0.00
2013-4-11,73,56,35,23,17,-100,51,25,10,30.35,30.15,10,3,0,0.00
2013-4-12,75,60,45,25,10,-100,38,21,11,30.24,30.12,16,-206,0,0.00
2013-4-13,76,64,44,25,19,14,41,20,11,30.26,30.13,18,-112,0,0.00
2013-4-14,76,67,57,34,18,-100,35,20,11,30.21,30.09,20,-222,0,0.00
2013-4-15,77,73,60,29,4,-100,31,12,10,30.21,30.11,20,-225,0,0.00
2013-4-16,77,68,55,38,10,-100,41,18,7,30.22,30.11,23,-195,0,0.00
2013-4-17,61,56,46,37,23,6,45,29,16,30.34,30.10,22,-21,0,0.00
2013-4-18,64,50,33,11,4,-4,32,16,7,30.49,30.32,11,-18,0,0.00
2013-4-19,69,58,17,3,-4,-100,15,9,5,30.54,30.33,11,-210,0,0.00
2013-4-20,76,62,40,12,3,-4,18,10,6,30.39,30.26,13,4,0,0.00
2013-4-21,82,72,52,14,6,-100,20,9,5,30.47,30.33,11,-83,0,0.00
2013-4-22,85,72,54,15,4,-100,15,8,5,30.41,30.22,12,-59,0,0.00
2013-4-23,81,72,57,18,6,-100,17,10,7,30.32,30.21,16,-116,0,0.00
2013-4-24,83,70,51,26,16,7,29,14,7,30.37,30.25,14,-103,0,0.00
2013-4-25,79,70,57,25,16,6,24,13,6,30.43,30.24,23,-318,0,0.00
2013-4-26,79,64,43,27,14,-3,38,17,4,30.53,30.40,8,3,0,0.00
2013-4-27,82,68,47,22,15,6,30,15,7,30.49,30.32,8,3,0,0.00
2013-4-28,85,71,49,18,11,1,24,12,4,30.37,30.22,7,-24,0,0.00
2013-4-29,87,80,60,12,6,1,13,6,4,30.29,30.13,13,4,0,0.00
2013-4-30,76,76,74,14,13,13,10,9,9,30.26,30.18,13,-830,0,0.00
2013-5-2,70,60,54,19,18,15,25,20,12,30.55,30.49,7,3,0,0.00
2013-5-3,76,60,46,19,13,5,31,18,7,30.56,30.26,8,4,0,0.00
2013-5-4,83,68,47,29,13,-100,23,14,7,30.28,30.15,15,-24,0,0.00
2013-5-5,80,72,62,30,19,-100,26,16,9,30.36,30.22,16,-317,0,0.00
2013-5-6,77,69,58,40,18,-100,48,22,16,30.39,30.29,16,-378,0,0.00
2013-5-7,76,65,50,36,28,19,46,27,14,30.40,30.25,17,-55,0,0.00
2013-5-8,76,64,51,32,26,18,47,25,12,30.41,30.30,14,-39,0,0.00
2013-5-9,76,66,50,37,27,-100,56,27,12,30.39,30.27,15,-9,0,0.00
2013-5-10,74,61,48,35,19,-100,40,26,15,30.50,30.34,17,-157,0,0.00
2013-5-11,75,64,50,36,30,-100,49,31,18,30.55,30.46,13,-26,0,0.00
2013-5-12,79,65,51,36,30,20,50,31,12,30.60,30.42,17,-308,0,0.00
2013-5-13,82,69,55,27,-32,-100,34,12,11,30.56,30.45,14,-526,0,0.00
2013-5-14,85,72,55,33,28,21,36,21,11,30.46,30.30,12,-306,0,0.00
2013-5-15,87,78,68,30,10,-100,23,13,10,30.46,30.31,17,-171,0,0.00
2013-5-16,88,74,64,26,7,-100,20,12,6,30.40,30.23,13,7,0,0.00
2013-5-17,86,74,56,27,17,-100,29,14,6,30.36,30.24,16,8,0,0.00
2013-5-18,83,72,58,30,21,7,32,16,6,30.37,30.25,14,6,0,0.00
2013-5-19,83,71,56,35,25,14,42,20,9,30.36,30.20,13,5,0,0.00
2013-5-20,83,72,59,32,23,15,35,17,9,30.34,30.22,15,6,0,0.00
2013-5-21,87,73,54,20,12,2,23,11,4,30.38,30.22,11,4,0,0.00
2013-5-22,89,78,59,18,14,7,17,9,6,30.30,30.15,16,-45,0,0.00
2013-5-23,90,77,56,28,15,4,23,11,4,30.32,30.22,17,-15,0,0.00
2013-5-24,89,77,59,37,17,3,33,14,4,30.41,30.27,14,-3,0,0.00
2013-5-25,88,76,56,22,15,8,24,11,6,30.42,30.29,15,6,0,0.00
2013-5-26,88,76,58,28,11,2,23,9,4,30.40,30.29,15,0,0,0.00
2013-5-27,90,76,55,19,7,-100,20,8,4,30.35,30.15,13,-63,0,0.00
2013-5-28,87,74,55,25,10,-100,24,12,4,30.22,30.04,18,-82,0,0.00
2013-5-29,84,75,63,28,24,18,25,15,9,30.19,30.09,12,-2,0,0.00
2013-5-30,89,77,63,48,35,25,55,26,11,30.29,30.19,13,7,0,0.00
2013-5-31,91,76,62,50,38,24,58,29,9,30.34,30.20,11,-14,0,0.00
2013-6-1,94,73,59,36,24,-100,35,21,7,30.31,30.16,5,-78,0,0.00
2013-6-2,97,81,65,35,19,-100,28,15,8,30.29,30.16,13,-99,0,0.00
2013-6-3,93,82,66,35,22,-100,27,12,5,30.35,30.24,15,-166,0,0.00
2013-6-4,93,81,64,34,23,-100,28,14,9,30.36,30.25,16,-164,0,0.00
2013-6-5,93,81,63,32,7,-100,27,11,5,30.37,30.24,12,-182,0,0.00
2013-6-6,95,78,59,22,8,-100,19,10,4,30.33,30.20,7,-212,0,0.00
2013-6-7,98,83,67,27,21,-100,18,12,5,30.32,30.16,10,-45,0,0.00
2013-6-8,96,87,77,26,20,14,13,9,6,30.32,30.23,16,9,0,0.00
2013-6-9,98,86,70,34,24,14,26,12,6,30.39,30.27,14,6,0,0.00
2013-6-10,99,84,64,26,20,15,18,10,6,30.41,30.27,10,3,0,0.00
2013-6-11,101,86,65,27,20,13,19,9,5,30.41,30.27,11,4,0,0.00
2013-6-12,101,87,66,26,23,20,19,10,6,30.42,30.29,12,4,0,0.00
2013-6-13,98,87,75,36,32,24,24,14,10,30.41,30.26,15,6,0,0.00
2013-6-14,94,82,73,46,41,33,35,24,14,30.40,30.24,16,-12,0,0.00
2013-6-15,90,77,68,61,45,-100,74,40,20,30.44,30.32,13,-31,0,0.00
2013-6-16,93,80,63,57,47,26,70,38,13,30.47,30.32,13,4,0,0.00
2013-6-17,95,84,62,33,24,14,31,12,7,30.44,30.30,12,5,0,0.00
2013-6-18,97,84,63,25,12,-6,21,8,2,30.39,30.25,16,-25,0,0.00
2013-6-19,97,86,64,30,19,8,17,9,5,30.31,30.20,16,-9,0,0.00
2013-6-20,95,79,64,24,16,2,19,11,3,30.34,30.26,14,5,0,0.00
2013-6-22,95,89,79,31,19,12,16,8,5,30.38,30.24,14,9,0,0.00
2013-6-23,94,84,66,29,25,21,25,12,8,30.35,30.20,18,9,0,0.00
2013-6-24,93,83,71,32,29,22,22,15,10,30.36,30.25,18,8,0,0.00
2013-6-25,95,83,63,36,24,13,35,14,6,30.44,30.33,10,5,0,0.00
2013-6-26,95,86,68,27,19,11,20,9,5,30.51,30.40,15,6,0,0.00
2013-6-27,100,86,68,30,23,14,19,10,6,30.54,30.38,13,5,0,0.00
2013-6-28,99,86,68,31,26,22,19,12,7,30.48,30.36,11,4,0,0.00
2013-6-29,99,88,71,39,33,27,22,14,9,30.46,30.29,10,3,0,0.00
2013-6-30,101,88,75,54,39,33,47,20,10,30.41,30.22,25,-26,0,0.00
2013-7-1,94,80,70,57,41,-100,64,38,18,30.47,30.31,13,-110,0,0.00
2013-7-2,90,76,63,60,54,47,83,51,23,30.60,30.35,18,4,0,0.00
2013-7-3,93,78,64,59,53,45,83,46,20,30.50,30.23,11,3,0,0.00
2013-7-4,95,82,68,60,52,45,74,39,20,30.37,30.22,11,5,0,0.00
2013-7-5,90,77,70,59,56,49,67,51,29,30.38,30.28,19,4,0,0.00
2013-7-6,94,76,65,60,55,50,75,53,23,30.35,30.22,8,2,0,0.00
2013-7-7,98,82,69,60,53,47,65,41,18,30.42,30.24,19,4,0,0.00
2013-7-8,95,80,71,60,54,-100,64,44,22,30.47,30.35,12,-6,0,0.00
2013-7-9,93,80,67,66,54,-100,84,50,27,30.55,30.35,14,-22,0,0.00
2013-7-13,92,82,70,65,56,50,82,44,25,30.47,30.32,14,5,0,0.00
2013-7-14,94,80,69,65,58,50,83,50,23,30.47,30.29,14,5,0,0.00
2013-7-15,90,78,67,64,58,52,84,52,28,30.43,30.26,20,3,0,0.00
2013-7-16,75,68,65,64,62,59,90,82,60,30.53,30.41,11,3,0,0.00
2013-7-17,85,73,65,64,57,47,89,61,28,30.56,30.42,15,2,0,0.00
2013-7-18,77,72,64,60,56,54,77,60,47,30.54,30.39,11,3,0,0.00
2013-7-19,77,71,67,64,60,57,84,67,54,30.46,30.32,10,2,0,0.00
2013-7-20,82,72,64,63,59,-100,85,68,43,30.40,30.29,13,3,0,0.00
2013-7-21,85,74,65,65,61,55,89,66,36,30.43,30.32,10,2,0,0.00
2013-7-22,86,76,67,64,59,55,81,58,37,30.48,30.36,11,3,0,0.00
2013-7-23,87,76,67,64,59,53,87,57,32,30.50,30.34,11,4,0,0.00
2013-7-24,84,73,67,66,62,58,89,72,41,30.47,30.36,11,2,0,0.00
2013-7-25,83,74,68,66,63,57,88,70,45,30.53,30.43,11,2,0,0.00
2013-7-26,89,76,67,66,61,56,81,60,35,30.61,30.49,6,2,0,0.00
2013-7-27,85,74,66,64,62,58,86,67,44,30.55,30.39,8,1,0,0.00
2013-7-28,90,78,66,63,56,47,80,52,25,30.42,30.31,10,3,0,0.00
2013-7-29,90,81,68,57,50,44,64,36,22,30.53,30.40,8,3,0,0.00
2013-7-30,93,82,66,55,48,43,62,33,18,30.61,30.48,8,1,0,0.00
2013-7-31,91,80,71,59,53,45,57,40,24,30.58,30.45,0,0,0,0.00
2013-8-1,76,72,66,61,58,55,84,63,55,30.59,30.47,9,2,0,0.00
2013-8-2,85,76,70,63,60,56,72,57,40,30.50,30.41,7,1,0,0.00
2013-8-3,89,78,63,60,56,50,84,51,28,30.52,30.41,1,0,0,0.00
2013-8-4,90,79,70,62,56,48,71,47,27,30.53,30.40,7,1,0,0.00
2013-8-5,83,71,63,63,58,52,85,64,36,30.58,30.39,17,5,0,0.00
2013-8-6,78,68,60,65,60,57,90,75,54,30.51,30.42,9,2,0,0.00
2013-8-7,84,72,60,62,54,46,91,58,29,30.53,30.40,8,2,0,0.00
2013-8-8,88,75,61,55,48,41,73,43,20,30.47,30.36,5,2,0,0.00
2013-8-9,90,77,59,51,45,40,64,35,19,30.46,30.37,10,4,0,0.00
2013-8-10,91,77,66,60,48,41,66,40,19,30.53,30.41,12,3,0,0.00
2013-8-11,86,75,65,64,57,53,76,56,34,30.53,30.37,9,3,0,0.00
2013-8-12,91,77,65,63,57,53,76,54,28,30.49,30.37,9,2,0,0.00
2013-8-13,91,77,64,58,52,-100,71,47,27,30.52,30.38,10,1,0,0.00
2013-8-14,93,78,70,61,51,-100,65,43,25,30.54,30.38,10,3,0,0.00
2013-8-15,91,70,66,60,36,-100,77,45,26,30.53,30.40,7,2,0,0.00
2013-8-16,94,77,66,57,46,-100,71,41,22,30.52,30.42,7,3,0,0.00
2013-8-17,95,79,65,56,44,-100,67,34,15,30.52,30.35,7,2,0,0.00
2013-8-18,95,82,66,51,47,44,56,32,19,30.50,30.38,12,3,0,0.00
2013-8-27,87,75,64,52,50,48,65,44,28,30.45,30.37,8,3,0,0.00
2013-8-28,82,76,69,64,58,52,82,57,37,30.49,30.38,9,4,0,0.00
2013-8-29,76,69,65,66,63,61,91,81,62,30.60,30.48,9,1,0,0.00
2013-8-30,78,70,65,64,61,56,92,75,49,30.58,30.47,6,0,0,0.00
2013-8-31,90,75,62,63,56,-100,89,56,28,30.51,30.36,6,2,0,0.00
2013-9-1,93,79,63,60,54,48,80,47,22,30.45,30.32,6,2,0,0.00
2013-9-2,93,79,67,60,54,45,74,46,22,30.50,30.31,9,2,0,0.00
2013-9-3,89,77,66,61,54,50,81,47,27,30.48,30.38,7,3,0,0.00
2013-9-4,90,77,62,57,49,40,82,43,19,30.52,30.40,10,3,0,0.00
2013-9-5,90,76,62,55,49,44,60,40,21,30.53,30.42,9,3,0,0.00
2013-9-6,88,76,64,56,52,45,70,46,23,30.52,30.36,12,2,0,0.00
2013-9-7,82,70,64,62,54,-100,88,63,40,30.47,30.36,14,2,0,0.00
2013-9-8,82,68,64,63,61,58,89,80,44,30.42,30.27,3,1,0,0.00
2013-9-9,73,66,63,62,61,60,91,84,68,30.34,30.25,11,2,0,0.00
2013-9-11,82,71,57,58,53,45,89,55,28,30.46,30.35,8,2,0,0.00
2013-9-12,83,72,61,67,58,51,86,62,41,30.42,30.27,8,2,0,0.00
2013-9-13,85,73,62,63,59,47,91,65,27,30.35,30.18,7,2,0,0.00
2013-9-14,85,72,63,62,54,-100,88,60,31,30.30,30.19,5,2,0,0.00
2013-9-15,87,75,66,57,53,48,73,49,28,30.36,30.26,6,3,0,0.00
2013-9-16,87,75,66,58,55,51,72,51,29,30.44,30.31,9,3,0,0.00
2013-9-17,89,74,62,60,53,44,80,52,22,30.42,30.24,6,2,0,0.00
2013-9-18,80,72,66,57,52,39,70,52,24,30.30,30.24,5,2,0,0.00
2013-9-19,90,77,59,53,46,35,58,36,21,30.32,30.20,6,2,0,0.00
2013-9-20,87,72,62,59,54,50,73,54,31,30.42,30.29,11,2,0,0.00
2013-9-21,86,73,57,55,46,-100,83,44,22,30.42,30.23,8,3,0,0.00
2013-10-2,83,71,53,36,33,27,51,26,14,30.43,30.28,7,3,0,0.00
2013-10-3,85,71,52,41,34,27,60,29,13,30.35,30.19,11,5,0,0.00
2013-10-4,80,68,55,46,38,27,68,35,15,30.41,30.26,8,4,0,0.00
2013-10-5,74,62,44,33,21,14,40,22,14,30.53,30.39,7,3,0,0.00
2013-10-6,78,62,46,19,17,13,30,18,10,30.58,30.47,5,2,0,0.00
2013-10-7,83,64,43,28,22,16,36,22,12,30.54,30.36,7,3,0,0.00
2013-10-8,82,70,56,32,26,22,28,20,14,30.37,30.24,12,5,0,0.00
2013-10-9,79,69,56,45,32,25,44,27,15,30.27,30.16,18,10,0,0.00
2013-10-10,67,60,44,46,38,32,73,46,27,30.33,30.14,19,9,0,0.00
2013-10-18,75,57,38,20,15,9,37,20,11,30.42,30.32,4,2,0,0.00
2013-10-19,77,57,39,16,11,-100,31,18,9,30.49,30.35,5,2,0,0.00
2013-10-20,76,60,43,16,11,3,29,16,6,30.38,30.26,8,3,0,0.00
2013-10-21,78,59,42,16,11,7,27,16,7,30.44,30.34,6,2,0,0.00
2013-10-22,77,62,44,27,18,11,34,19,10,30.52,30.38,6,2,0,0.00
2013-10-23,80,63,44,32,25,20,41,25,14,30.44,30.32,8,3,0,0.00
2013-10-24,81,70,47,38,29,22,41,23,13,30.44,30.31,12,5,0,0.00
2013-10-25,79,68,47,25,22,17,35,18,11,30.49,30.39,7,3,0,0.00
2013-10-26,76,58,43,25,20,-100,43,25,11,30.54,30.43,5,2,0,0.00
2013-10-27,80,66,45,32,25,18,47,23,12,30.47,30.22,9,4,0,0.00
2013-10-28,72,63,52,28,21,-100,36,22,11,30.32,30.24,18,8,0,0.00
2013-10-29,73,64,56,38,26,19,51,25,14,30.35,30.22,15,9,0,0.00
2013-10-30,66,57,42,40,34,27,57,44,28,30.38,30.24,15,7,0,0.00